User: anonymous   Login
Location: Newark
(43.0000°N, 1.6781°W)
Time: 18:04:06
(UTC+00:00)
Language:

Altair - Orbit

View from above orbital plane
View from above orbital plane
View from above satellite
View from above satellite

Ground track
Ground track

The orbit data is extracted from the following two-line orbital elements,

1    50U 60009B   21109.13659172 -.00000061  00000-0  22805-3 0  9995
2    50  47.2306 252.5315 0114051 156.7545 203.8457 12.20116605708005
Epoch (UTC): 19 April 2021 03:16:41
Eccentricity: 0.0114051
inclination: 47.2306°
perigee height: 1501 km
apogee height: 1683 km
right ascension of ascending node: 252.5315°
argument of perigee: 156.7545°
revolutions per day: 12.20116605
mean anomaly at epoch: 203.8457°
orbit number at epoch: 70800

The dashed part of the orbit path shows where the satellite is in the earth's shadow,  

DLR